Home > Weather > Beaumont > Past weeks

Flag for USA Weather for the Past 2 Weeks in Beaumont, Texas, USA

Now
77 °F

Overcast.


Feels Like: 78 °F
Forecast: 74 / 84 °F
Wind: 14 mph from Southeast

Location: Jefferson County Airport

Current Time: Apr 29, 2016 at 3:53:59 AM

Latest Report: Apr 29, 2016 at 2:53 AM


Visibility: 9 mi

Pressure: 29.81 "Hg

Humidity: 88%

Dew Point: 73 °F

Location of BeaumontLocation

Historic Weather in Beaumont — Graph

°F

Beaumont Temperature Yesterday

Maximum temperature yesterday: 86 °F (at 1:53 PM)
Minimum temperature yesterday: 67 °F (at 4:03 AM)
Average temperature yesterday: 76 °F

High & Low Weather Summary for the Past Weeks

 TemperatureHumidityPressure
High86 °F (Apr 28, 1:53 PM)100% (Apr 14, 1:02 AM)30.11 "Hg (Apr 14, 1:02 AM)
Low57 °F (Apr 23, 5:53 AM)37% (Apr 23, 1:53 PM)29.63 "Hg (Apr 27, 5:53 AM)
Average72 °F84%29.92 "Hg
* Reported Apr 14 1:02 AM — Apr 29 1:53 AM, Beaumont, Weather by CustomWeather, © 2016

Note: Actual official high and low records may vary slightly from our data, if they occured in-between our weather recording intervals... More about our weather records

Advertising

Beaumont Weather History for the Previous 24 Hours

Scroll right to see more
 ConditionsComfort  
Time TempWeatherWind HumidityBarometerVisibility
1:53 AM
Fri, Apr 29
77 °FMostly cloudy.14 mph90%29.83 "Hg9 mi
12:53 AM78 °FMostly cloudy.14 mph87%29.85 "Hg9 mi
11:53 PM
Thu, Apr 28
78 °FMostly cloudy.14 mph87%29.84 "Hg9 mi
10:53 PM78 °FMostly cloudy.18 mph90%29.85 "Hg9 mi
9:53 PM78 °FLow clouds.16 mph90%29.84 "Hg8 mi
8:53 PM78 °FPassing clouds.14 mph90%29.83 "Hg9 mi
7:53 PM78 °FPartly sunny.16 mph87%29.81 "Hg10 mi
6:53 PM79 °FPartly sunny.13 mph82%29.81 "Hg10 mi
5:53 PM81 °FPartly sunny.17 mph82%29.81 "Hg9 mi
4:53 PM83 °FPartly sunny.13 mph77%29.80 "Hg10 mi
3:53 PM83 °FScattered clouds.15 mph74%29.82 "Hg10 mi
2:53 PM83 °FMostly cloudy.13 mph72%29.84 "Hg10 mi
1:53 PM86 °FBroken clouds.14 mph67%29.84 "Hg10 mi
12:53 PM85 °FBroken clouds.10 mph68%29.85 "Hg10 mi
11:53 AM85 °FScattered clouds.10 mph68%29.86 "Hg10 mi
10:53 AM83 °FSunny.10 mph72%29.87 "Hg10 mi
9:53 AM80 °FScattered clouds.8 mph79%29.86 "Hg6 mi
8:53 AM76 °FFog.7 mph91%29.85 "Hg3 mi
8:00 AM72 °FFog.5 mph100%29.85 "Hg4 mi
6:53 AM68 °FFog.5 mph100%29.83 "Hg1 mi
5:56 AM67 °FFog.No wind100%29.82 "Hg1 mi
4:53 AM67 °FFog.5 mph97%29.80 "Hg2 mi
4:03 AM67 °FFog.No wind100%29.79 "Hg2 mi
Weather by CustomWeather, © 2016

See weather overviewHow to use our weather pages